Airfield :
LOGIN :

Register | Disclaimer

   EN    FR    IT 

 










Legend :    VFR   Marginal VFR   IFR   Intensive IFR   Very Intensive IFR
Visi :
Ceiling :
>= 8 km
>= 3000ft
5 to 8 km
1000 to 3000 ft
1500m to 5 km
500 to 1000 ft
800 to 1500m
200 to 500 ft
< 800m
< 200 ft
Symbols :   Thunderstorms  Fog  Heavy snow  Heavy precipitations  Wind > 20 kt
SIGMETs :     Misc.  Thunderstorms  Icing  Turbulence  Mountain Waves  Volcanic Ashes







- Airport Elevation : 15 ft
- IATA code : FCO


LIRF - Roma Leonardo da Vinci Fiumicino

CURRENT METAR :
  • 201450Z 25009KT 220V290 CAVOK 28/19 Q1013 NOSIG

EXPIRED METARs :
  • 201320Z 21010KT 180V250 CAVOK 29/18 Q1013 NOSIG
  • 201250Z 21009KT 170V240 9999 FEW030 29/17 Q1013 NOSIG
  • 201220Z 19009KT 170V240 CAVOK 29/17 Q1013 NOSIG

TAF TAF LIRF
Valid from the 20 at 12:00 until the 21 at 18:00 UTC


201100Z 2012/2118 23012KT CAVOK
BECMG 2016/2018 30010KT
BECMG 2020/2022 04010KT
BECMG 2108/2110 27012KT
No reported NOTAMs for that airfield.



MET'MAP, your aeronautical weather chart ! - Copyright ORBIFLY December 2007 - Disclaimer

ORBIFLY MET'MAP TEAM :

Programming & Development : Alexandra Zaïnal
Concept & Development : Baudouin d'Aumeries
Co-Development & Prog : Marc-Olivier Méhu
Technical & hardware support : Manuel Goepfert

Contact : metmap@orbifly.com




SOURCES & CREDITS :

   NOAA